Location: Cheyres
(46.8153°N, 6.7877°E)
Time: 04:14:30
(UTC+00:00)

Meteor 1-5 Rocket - Pass Details

Date: 11 May 2021
Orbit: 788 x 916 km, 81.2° (Epoch: 18 June)

Event Time Altitude Azimuth Distance (km) Brightness Sun altitude
Rises 20:57:34 0° 347° (NNW) 3,352 8.6 -16.6°
Reaches altitude 10° 21:00:00 10° 345° (NNW) 2,401 7.6 -16.9°
Maximum altitude 21:05:22 73° 262° (W) 835 4.2 -17.4°
Enters shadow 21:08:38 24° 182° (S) 1,598 5.2 -17.8°
